Flag for United Kingdom Weather past 2 weeks in Bangor, Wales, United Kingdom

Now
45 °F

Rain showers. Overcast.


Feels Like: 35 °F
Forecast: 44 / 49 °F
Wind: 32 mph from Southwest

Location: Capel Curig

Current Time: Mar 29, 2015 at 6:28:28 AM

Latest Report: Mar 29, 2015 at 5:00 AM


Visibility: 6 mi

Pressure: 29.50 "Hg

Humidity: 76%

Dew point: 38 °F

Location of BangorLocation

Historic Weather in Bangor — Graph

°F

Bangor temperature yesterday

Maximum temperature yesterday: 50 °F (at 5:00 PM)
Minimum temperature yesterday: 43 °F (at 12:00 AM)
Average temperature yesterday: 47 °F

Past Weeks' High & Low Weather Summary

 TemperatureHumidityPressure
High50 °F (Mar 28, 5:00 PM)100% (Mar 18, 9:00 AM)30.64 "Hg (Mar 18, 9:00 AM)
Low26 °F (Mar 22, 4:00 AM)51% (Mar 25, 1:00 PM)29.41 "Hg (Mar 26, 5:00 AM)
Average41 °F81%30.20 "Hg
* Reported Mar 14 3:00 AM — Mar 29 4:00 AM, Bangor, Weather by CustomWeather, © 2015

Note: Actual official high and low records may vary slightly from our data, if they occured in-between our weather recording intervals... More about our weather records

Advertising

Bangor weather history for previous 24 hours

 ConditionsComfort  
Time TempWeatherWind HumidityBarometerVisibility
4:00 AM
Sun, Mar 29
45 °FCool.26 mph73%29.54 "Hg8 mi
3:00 AM46 °FCool.31 mph75%29.55 "Hg9 mi
2:00 AM46 °FCool.31 mph70%29.59 "Hg11 mi
12:00 AM46 °FCool.28 mph78%29.59 "Hg11 mi
11:00 PM
Sat, Mar 28
47 °FCool.29 mph82%29.57 "Hg16 mi
10:00 PM47 °FCool.39 mph88%29.56 "Hg10 mi
8:00 PM47 °FRain. Overcast.29 mph82%29.60 "Hg7 mi
7:00 PM48 °FLots of rain. Overcast.29 mph74%29.64 "Hg11 mi
6:00 PM49 °FRain showers. Overcast.21 mph78%29.63 "Hg14 mi
5:00 PM50 °FCool.21 mph84%29.61 "Hg12 mi
4:00 PM48 °FDrizzle. Cloudy.28 mph98%29.60 "Hg5 mi
3:00 PM48 °FRain showers. Cloudy.28 mph100%29.63 "Hg2 mi
2:00 PM47 °FCool.35 mph100%29.64 "Hg1 mi
1:00 PM48 °FCool.37 mph100%29.63 "Hg1 mi
12:00 PM48 °FCool.43 mph99%29.65 "Hg1 mi
11:00 AM48 °FLight freezing rain. Cloudy.37 mph98%29.65 "Hg2 mi
10:00 AM48 °FLight rain. Cloudy.35 mph96%29.69 "Hg1 mi
9:00 AM48 °FRain. Cloudy.35 mph96%29.69 "Hg4 mi
7:00 AM48 °FDrizzle. Cloudy.47 mph98%29.68 "Hg1 mi
6:00 AM48 °FDrizzle. Cloudy.36 mph98%29.72 "Hg1 mi
Weather by CustomWeather, © 2015

See weather overviewHow to use our weather pages